TimeEDT,TemperatureF,Dew PointF,Humidity,Sea Level PressureIn,VisibilityMPH,Wind Direction,Wind SpeedMPH,Gust SpeedMPH,PrecipitationIn,Events,Conditions,WindDirDegrees,DateUTC
12:56 AM,57.9,57.9,100,30.06,10.0,NW,9.2,-,N/A,,Overcast,320,2012-10-10 04:56:00
1:56 AM,57.9,57.9,100,30.06,10.0,West,6.9,-,N/A,,Overcast,270,2012-10-10 05:56:00
2:56 AM,57.0,57.0,100,30.05,10.0,West,9.2,-,N/A,,Overcast,280,2012-10-10 06:56:00
3:05 AM,57.2,55.4,94,30.04,10.0,West,9.2,-,N/A,,Overcast,280,2012-10-10 07:05:00
3:31 AM,57.2,55.4,94,30.04,10.0,West,10.4,-,N/A,,Overcast,280,2012-10-10 07:31:00
3:48 AM,57.2,55.4,94,30.04,10.0,West,8.1,-,N/A,,Overcast,270,2012-10-10 07:48:00
3:56 AM,57.0,55.9,96,30.04,10.0,West,9.2,-,N/A,,Overcast,280,2012-10-10 07:56:00
4:56 AM,55.9,55.9,100,30.04,10.0,WNW,8.1,-,N/A,,Overcast,300,2012-10-10 08:56:00
5:56 AM,57.0,55.0,93,30.04,10.0,WNW,10.4,-,N/A,,Overcast,300,2012-10-10 09:56:00
6:56 AM,57.0,55.0,93,30.05,10.0,West,9.2,-,N/A,,Overcast,270,2012-10-10 10:56:00
7:20 AM,57.2,55.4,94,30.05,10.0,West,9.2,-,N/A,,Overcast,280,2012-10-10 11:20:00
7:56 AM,57.0,55.0,93,30.07,10.0,WNW,8.1,-,N/A,,Overcast,290,2012-10-10 11:56:00
8:56 AM,57.0,54.0,89,30.08,10.0,West,9.2,-,N/A,,Overcast,280,2012-10-10 12:56:00
9:56 AM,57.9,53.1,84,30.09,10.0,NW,11.5,-,N/A,,Overcast,310,2012-10-10 13:56:00
10:56 AM,60.1,52.0,75,30.08,10.0,WNW,9.2,-,N/A,,Overcast,300,2012-10-10 14:56:00
11:56 AM,62.1,52.0,70,30.06,10.0,West,6.9,-,N/A,,Mostly Cloudy,280,2012-10-10 15:56:00
12:07 PM,62.6,53.6,72,30.05,10.0,WNW,9.2,-,N/A,,Partly Cloudy,290,2012-10-10 16:07:00
12:56 PM,64.9,53.1,65,30.04,10.0,West,11.5,19.6,N/A,,Mostly Cloudy,280,2012-10-10 16:56:00
1:08 PM,64.4,51.8,64,30.04,10.0,WNW,10.4,-,N/A,,Scattered Clouds,290,2012-10-10 17:08:00
1:56 PM,66.0,53.1,63,30.01,10.0,NW,4.6,-,N/A,,Partly Cloudy,320,2012-10-10 17:56:00
2:56 PM,66.9,54.0,63,29.99,10.0,WSW,4.6,-,N/A,,Clear,250,2012-10-10 18:56:00
3:56 PM,68.0,54.0,61,29.97,10.0,West,6.9,-,N/A,,Clear,270,2012-10-10 19:56:00
4:56 PM,70.0,54.0,57,29.97,10.0,NW,6.9,-,N/A,,Clear,320,2012-10-10 20:56:00
5:56 PM,68.0,53.1,59,29.98,10.0,WNW,10.4,-,N/A,,Clear,300,2012-10-10 21:56:00
6:56 PM,64.9,55.0,70,30.00,10.0,West,5.8,-,N/A,,Clear,270,2012-10-10 22:56:00
7:56 PM,64.0,55.9,75,30.03,10.0,West,6.9,-,N/A,,Clear,280,2012-10-10 23:56:00
8:56 PM,63.0,55.0,75,30.05,10.0,West,5.8,-,N/A,,Clear,280,2012-10-11 00:56:00
9:56 PM,63.0,55.0,75,30.07,10.0,West,8.1,-,N/A,,Clear,280,2012-10-11 01:56:00
10:56 PM,62.1,55.0,78,30.09,10.0,WNW,6.9,-,N/A,,Clear,290,2012-10-11 02:56:00
11:56 PM,61.0,54.0,78,30.09,10.0,WNW,8.1,-,N/A,,Clear,290,2012-10-11 03:56:00